GAF941 EDDP-EDDK

Flight info

Callsign GAF941
Flight time 0h 43m
Altitude 32000
Route ORTAG5N ORTAG Q230 KUMER DCT TOLTA DCT PODER Z189 RUNER T858 KOPAG KOPAG1B
Aircraft A359/H-SDE2E3GHIJ3J4J5LM1ORWXY/LB1D1

Departure

Time 2026-04-26 19:46
Airport Leipzig/Halle Airport (EDDP)

Arrival

Time 2026-04-26 20:29
Airport Cologne Bonn Airport (EDDK)
Time Latitude Longitude Altitude Speed Heading
2026-04-26 19:25 51.41933 12.21771 442 ft 0 kts 15°
2026-04-26 19:36 51.41913 12.21762 427 ft 2 kts 15°
2026-04-26 19:36 51.41899 12.21756 434 ft 2 kts 15°
2026-04-26 19:37 51.41886 12.21750 427 ft 2 kts 15°
2026-04-26 19:37 51.41874 12.21742 427 ft 2 kts 49°
2026-04-26 19:37 51.41866 12.21723 427 ft 2 kts 73°
2026-04-26 19:37 51.41862 12.21702 428 ft 2 kts 106°
2026-04-26 19:38 51.41863 12.21697 427 ft 0 kts 108°
2026-04-26 19:41 51.41859 12.21715 443 ft 5 kts 106°
2026-04-26 19:41 51.41843 12.21807 434 ft 12 kts 105°
2026-04-26 19:41 51.41818 12.21956 430 ft 16 kts 105°
2026-04-26 19:41 51.41808 12.22017 426 ft 17 kts 105°
2026-04-26 19:42 51.41762 12.22287 430 ft 21 kts 105°
2026-04-26 19:42 51.41722 12.22516 448 ft 21 kts 105°
2026-04-26 19:42 51.41683 12.22739 457 ft 20 kts 105°
2026-04-26 19:42 51.41633 12.23025 466 ft 20 kts 105°
2026-04-26 19:43 51.41609 12.23171 465 ft 20 kts 104°
2026-04-26 19:43 51.41604 12.23396 468 ft 21 kts 88°
2026-04-26 19:43 51.41616 12.23645 475 ft 23 kts 86°
2026-04-26 19:43 51.41628 12.23904 479 ft 24 kts 85°
2026-04-26 19:44 51.41641 12.24158 482 ft 22 kts 85°
2026-04-26 19:44 51.41651 12.24415 475 ft 25 kts 86°
2026-04-26 19:44 51.41660 12.24695 480 ft 20 kts 100°
2026-04-26 19:44 51.41600 12.24750 479 ft 9 kts 190°
2026-04-26 19:45 51.41517 12.24718 476 ft 15 kts 194°
2026-04-26 19:45 51.41386 12.24658 478 ft 20 kts 209°
2026-04-26 19:45 51.41352 12.24478 481 ft 27 kts 266°
2026-04-26 19:45 51.41314 12.23686 476 ft 113 kts 265°
2026-04-26 19:46 51.41236 12.22075 673 ft 162 kts 265°
2026-04-26 19:46 51.41129 12.20288 1610 ft 161 kts 265°
2026-04-26 19:46 51.41041 12.18400 2117 ft 183 kts 266°
2026-04-26 19:46 51.40945 12.16197 2415 ft 209 kts 266°
2026-04-26 19:47 51.40836 12.13769 2760 ft 235 kts 266°
2026-04-26 19:47 51.40751 12.11938 3060 ft 250 kts 266°
2026-04-26 19:47 51.40573 12.08187 4131 ft 257 kts 266°
2026-04-26 19:47 51.40435 12.05314 5030 ft 260 kts 266°
2026-04-26 19:48 51.40295 12.02413 5903 ft 262 kts 267°
2026-04-26 19:48 51.40153 11.99481 6765 ft 266 kts 267°
2026-04-26 19:48 51.40008 11.96517 7561 ft 268 kts 267°
2026-04-26 19:48 51.39862 11.93527 8386 ft 270 kts 268°
2026-04-26 19:49 51.39717 11.90511 9224 ft 272 kts 268°
2026-04-26 19:49 51.39566 11.87482 10056 ft 274 kts 268°
2026-04-26 19:49 51.39413 11.84441 10672 ft 283 kts 268°
2026-04-26 19:49 51.39251 11.81195 10974 ft 302 kts 267°
2026-04-26 19:50 51.39078 11.77748 11332 ft 317 kts 267°
2026-04-26 19:50 51.38923 11.74198 11925 ft 321 kts 270°
2026-04-26 19:50 51.39129 11.70636 12609 ft 322 kts 282°
2026-04-26 19:50 51.39635 11.67129 13278 ft 324 kts 285°
2026-04-26 19:51 51.40189 11.63613 13955 ft 327 kts 285°
2026-04-26 19:51 51.40748 11.60058 14567 ft 330 kts 284°
2026-04-26 19:51 51.41306 11.56476 15151 ft 333 kts 284°
2026-04-26 19:51 51.41865 11.52864 15760 ft 335 kts 284°
2026-04-26 19:52 51.42426 11.49226 16386 ft 338 kts 284°
2026-04-26 19:52 51.42990 11.45554 17011 ft 340 kts 284°
2026-04-26 19:52 51.43557 11.41848 17611 ft 343 kts 284°
2026-04-26 19:52 51.44124 11.38130 18210 ft 345 kts 284°
2026-04-26 19:53 51.44697 11.34368 18766 ft 348 kts 284°
2026-04-26 19:53 51.45266 11.30620 19266 ft 351 kts 284°
2026-04-26 19:53 51.45836 11.26859 20087 ft 343 kts 284°
2026-04-26 19:53 51.46397 11.23143 20783 ft 342 kts 284°
2026-04-26 19:54 51.46958 11.19423 21335 ft 344 kts 284°
2026-04-26 19:54 51.47522 11.15674 21877 ft 347 kts 284°
2026-04-26 19:54 51.48091 11.11884 22416 ft 349 kts 284°
2026-04-26 19:54 51.48653 11.08128 22951 ft 351 kts 284°
2026-04-26 19:55 51.49205 11.04245 23523 ft 354 kts 283°
2026-04-26 19:55 51.49670 11.00358 24016 ft 357 kts 282°
2026-04-26 19:55 51.50098 10.96420 24466 ft 359 kts 281°
2026-04-26 19:55 51.50513 10.92504 24928 ft 362 kts 281°
2026-04-26 19:56 51.50940 10.88517 25412 ft 364 kts 282°
2026-04-26 19:56 51.51378 10.84508 25920 ft 366 kts 282°
2026-04-26 19:56 51.51827 10.80469 26433 ft 368 kts 282°
2026-04-26 19:56 51.52283 10.76413 26966 ft 370 kts 282°
2026-04-26 19:57 51.52746 10.72327 27504 ft 373 kts 282°
2026-04-26 19:57 51.53213 10.68195 28071 ft 376 kts 282°
2026-04-26 19:57 51.53681 10.64045 28636 ft 378 kts 282°
2026-04-26 19:57 51.54167 10.59919 29201 ft 381 kts 283°
2026-04-26 19:58 51.54725 10.55750 29832 ft 381 kts 284°
2026-04-26 19:58 51.55314 10.51597 30592 ft 378 kts 284°
2026-04-26 19:58 51.55903 10.47488 31250 ft 376 kts 285°
2026-04-26 19:58 51.56485 10.43394 31877 ft 376 kts 285°
2026-04-26 19:59 51.57064 10.39264 32235 ft 382 kts 285°
2026-04-26 19:59 51.57637 10.35113 32297 ft 377 kts 284°
2026-04-26 19:59 51.58735 10.27022 32297 ft 370 kts 284°
2026-04-26 20:00 51.59824 10.18920 32295 ft 370 kts 284°
2026-04-26 20:00 51.60905 10.10840 32301 ft 369 kts 284°
2026-04-26 20:01 51.61983 10.02750 32291 ft 368 kts 284°
2026-04-26 20:01 51.63045 9.94737 32300 ft 368 kts 284°
2026-04-26 20:02 51.64105 9.86690 32104 ft 363 kts 284°
2026-04-26 20:02 51.64629 9.82701 31449 ft 366 kts 284°
2026-04-26 20:02 51.64979 9.80032 31033 ft 367 kts 284°
2026-04-26 20:03 51.65682 9.74642 30273 ft 367 kts 283°
2026-04-26 20:03 51.66205 9.70617 29611 ft 368 kts 283°
2026-04-26 20:03 51.66727 9.66583 28907 ft 368 kts 284°
2026-04-26 20:03 51.67247 9.62557 28351 ft 366 kts 284°
2026-04-26 20:04 51.67764 9.58546 27807 ft 364 kts 284°
2026-04-26 20:04 51.68262 9.54565 27274 ft 362 kts 282°
2026-04-26 20:04 51.68455 9.50506 26743 ft 363 kts 271°
2026-04-26 20:04 51.68279 9.46460 26261 ft 362 kts 268°
2026-04-26 20:05 51.67991 9.42425 25772 ft 361 kts 266°
2026-04-26 20:05 51.67653 9.38482 25409 ft 358 kts 265°
2026-04-26 20:05 51.67285 9.34499 25281 ft 359 kts 265°
2026-04-26 20:05 51.66912 9.30520 25284 ft 360 kts 265°
2026-04-26 20:06 51.66540 9.26514 25289 ft 360 kts 265°
2026-04-26 20:06 51.66173 9.22521 25291 ft 360 kts 265°
2026-04-26 20:06 51.65810 9.18523 25291 ft 360 kts 265°
2026-04-26 20:06 51.65453 9.14576 25292 ft 360 kts 265°
2026-04-26 20:07 51.65092 9.10581 25292 ft 360 kts 265°
2026-04-26 20:07 51.64730 9.06581 25291 ft 360 kts 265°
2026-04-26 20:07 51.64368 9.02588 25290 ft 360 kts 265°
2026-04-26 20:07 51.64004 8.98600 25290 ft 360 kts 265°
2026-04-26 20:08 51.63638 8.94604 25292 ft 360 kts 265°
2026-04-26 20:08 51.63270 8.90604 25235 ft 360 kts 265°
2026-04-26 20:08 51.62901 8.86613 25005 ft 359 kts 265°
2026-04-26 20:08 51.62537 8.82683 24768 ft 358 kts 264°
2026-04-26 20:09 51.62168 8.78723 24542 ft 358 kts 265°
2026-04-26 20:09 51.61615 8.74794 24298 ft 360 kts 256°
2026-04-26 20:09 51.60609 8.71083 24070 ft 364 kts 244°
2026-04-26 20:09 51.59099 8.67780 23822 ft 370 kts 231°
2026-04-26 20:10 51.57118 8.65100 23542 ft 375 kts 218°
2026-04-26 20:10 51.54939 8.62872 23271 ft 376 kts 215°
2026-04-26 20:10 51.52662 8.60800 23233 ft 377 kts 213°
2026-04-26 20:10 51.50354 8.58802 23291 ft 377 kts 212°
2026-04-26 20:11 51.48039 8.56820 23288 ft 377 kts 212°
2026-04-26 20:11 51.45728 8.54826 23234 ft 375 kts 212°
2026-04-26 20:11 51.43445 8.52835 22597 ft 375 kts 213°
2026-04-26 20:12 51.38757 8.48672 20747 ft 391 kts 212°
2026-04-26 20:12 51.36371 8.46543 20088 ft 391 kts 212°
2026-04-26 20:12 51.34025 8.44453 19506 ft 389 kts 212°
2026-04-26 20:12 51.31669 8.42359 18901 ft 386 kts 212°
2026-04-26 20:13 51.29370 8.40154 18289 ft 381 kts 218°
2026-04-26 20:13 51.27444 8.37332 17733 ft 371 kts 233°
2026-04-26 20:13 51.25922 8.34107 17207 ft 365 kts 238°
2026-04-26 20:13 51.24557 8.30714 16680 ft 361 kts 241°
2026-04-26 20:14 51.23295 8.27278 16153 ft 357 kts 243°
2026-04-26 20:14 51.22074 8.23818 15629 ft 355 kts 243°
2026-04-26 20:14 51.20874 8.20394 15109 ft 353 kts 243°
2026-04-26 20:14 51.19669 8.16987 14595 ft 351 kts 243°
2026-04-26 20:15 51.18462 8.13616 14052 ft 349 kts 243°
2026-04-26 20:15 51.17266 8.10318 13532 ft 346 kts 242°
2026-04-26 20:15 51.16058 8.07014 13011 ft 343 kts 242°
2026-04-26 20:15 51.14860 8.03748 12502 ft 339 kts 242°
2026-04-26 20:16 51.13671 8.00515 12000 ft 337 kts 242°
2026-04-26 20:16 51.12491 7.97310 11476 ft 334 kts 242°
2026-04-26 20:16 51.11320 7.94128 10966 ft 332 kts 243°
2026-04-26 20:16 51.10162 7.90980 10652 ft 322 kts 243°
2026-04-26 20:17 51.09054 7.87987 10548 ft 306 kts 243°
2026-04-26 20:17 51.08001 7.85147 10440 ft 291 kts 243°
2026-04-26 20:17 51.06974 7.82501 10311 ft 280 kts 238°
2026-04-26 20:17 51.06099 7.80948 10237 ft 278 kts 225°
2026-04-26 20:18 51.03875 7.78681 9882 ft 295 kts 211°
2026-04-26 20:18 51.02053 7.77146 9574 ft 296 kts 211°
2026-04-26 20:18 51.00228 7.75618 9231 ft 294 kts 211°
2026-04-26 20:18 50.98452 7.74123 8937 ft 292 kts 211°
2026-04-26 20:19 50.96640 7.72589 8645 ft 290 kts 211°
2026-04-26 20:19 50.94864 7.71078 8357 ft 289 kts 211°
2026-04-26 20:19 50.93118 7.69594 8093 ft 288 kts 211°
2026-04-26 20:19 50.91357 7.68095 7786 ft 286 kts 211°
2026-04-26 20:20 50.89607 7.66603 7505 ft 285 kts 211°
2026-04-26 20:20 50.87863 7.65123 7220 ft 283 kts 211°
2026-04-26 20:20 50.86126 7.63651 6934 ft 282 kts 211°
2026-04-26 20:20 50.84399 7.62186 6653 ft 280 kts 211°
2026-04-26 20:21 50.82687 7.60735 6364 ft 278 kts 210°
2026-04-26 20:21 50.80981 7.59288 6067 ft 277 kts 210°
2026-04-26 20:21 50.79290 7.57854 5793 ft 275 kts 210°
2026-04-26 20:21 50.77613 7.56431 5518 ft 273 kts 210°
2026-04-26 20:22 50.75967 7.55043 5259 ft 271 kts 209°
2026-04-26 20:22 50.74311 7.53646 4983 ft 269 kts 209°
2026-04-26 20:22 50.72720 7.52136 4663 ft 266 kts 219°
2026-04-26 20:22 50.71605 7.49907 4424 ft 254 kts 246°
2026-04-26 20:23 50.71168 7.47296 4277 ft 241 kts 261°
2026-04-26 20:23 50.70936 7.44739 4139 ft 230 kts 263°
2026-04-26 20:23 50.70726 7.42288 4014 ft 219 kts 262°
2026-04-26 20:23 50.70564 7.39981 3888 ft 209 kts 269°
2026-04-26 20:24 50.70902 7.37827 3734 ft 200 kts 302°
2026-04-26 20:24 50.71803 7.36233 3624 ft 190 kts 317°
2026-04-26 20:24 50.72793 7.34895 3527 ft 185 kts 319°
2026-04-26 20:24 50.73754 7.33549 3417 ft 180 kts 317°
2026-04-26 20:25 50.74651 7.32249 3268 ft 171 kts 317°
2026-04-26 20:25 50.74935 7.31840 3200 ft 170 kts 317°
2026-04-26 20:25 50.76378 7.29768 2809 ft 161 kts 317°
2026-04-26 20:25 50.77177 7.28616 2561 ft 151 kts 318°
2026-04-26 20:26 50.77933 7.27525 2379 ft 149 kts 319°
2026-04-26 20:26 50.78699 7.26422 2172 ft 149 kts 319°
2026-04-26 20:26 50.79448 7.25337 1972 ft 141 kts 319°
2026-04-26 20:26 50.80152 7.24320 1767 ft 133 kts 319°
2026-04-26 20:27 50.80601 7.23674 1661 ft 131 kts 320°
2026-04-26 20:27 50.81497 7.22378 1428 ft 130 kts 319°
2026-04-26 20:27 50.81939 7.21740 1298 ft 129 kts 319°
2026-04-26 20:27 50.82598 7.20785 1115 ft 128 kts 319°
2026-04-26 20:28 50.83250 7.19841 949 ft 126 kts 319°
2026-04-26 20:28 50.83898 7.18905 783 ft 125 kts 320°
2026-04-26 20:28 50.84534 7.17986 631 ft 125 kts 320°
2026-04-26 20:28 50.85171 7.17053 459 ft 125 kts 319°
2026-04-26 20:29 50.85814 7.16116 320 ft 123 kts 320°
2026-04-26 20:29 50.86413 7.15247 280 ft 110 kts 320°
2026-04-26 20:29 50.86901 7.14579 262 ft 70 kts 316°
2026-04-26 20:29 50.87113 7.14265 265 ft 31 kts 316°
2026-04-26 20:30 50.87259 7.13992 261 ft 34 kts 303°
2026-04-26 20:30 50.87323 7.13669 253 ft 22 kts 278°
2026-04-26 20:30 50.87341 7.13498 244 ft 19 kts 275°
2026-04-26 20:30 50.87276 7.13425 242 ft 11 kts 154°
2026-04-26 20:31 50.87193 7.13537 244 ft 26 kts 137°
2026-04-26 20:31 50.87083 7.13696 247 ft 21 kts 137°
2026-04-26 20:31 50.86992 7.13826 249 ft 17 kts 138°
2026-04-26 20:31 50.86896 7.13964 250 ft 20 kts 137°
2026-04-26 20:32 50.86798 7.14101 256 ft 15 kts 145°
2026-04-26 20:32 50.86709 7.14172 260 ft 11 kts 140°
2026-04-26 20:32 50.86657 7.14255 263 ft 11 kts 138°
2026-04-26 20:32 50.86586 7.14248 264 ft 13 kts 220°
2026-04-26 20:33 50.86530 7.14087 259 ft 20 kts 244°
2026-04-26 20:33 50.86464 7.13871 258 ft 25 kts 244°
2026-04-26 20:33 50.86383 7.13601 257 ft 29 kts 245°
2026-04-26 20:33 50.86291 7.13291 254 ft 33 kts 244°
2026-04-26 20:34 50.86214 7.13033 248 ft 22 kts 245°
2026-04-26 20:34 50.86142 7.12797 247 ft 26 kts 244°
2026-04-26 20:34 50.86076 7.12535 251 ft 20 kts 246°
2026-04-26 20:34 50.86078 7.12386 249 ft 13 kts 326°
2026-04-26 20:35 50.86194 7.12340 244 ft 22 kts 351°
2026-04-26 20:35 50.86322 7.12300 238 ft 18 kts 346°
2026-04-26 20:35 50.86407 7.12252 238 ft 8 kts 315°
2026-04-26 20:35 50.86411 7.12168 238 ft 9 kts 258°
2026-04-26 20:36 50.86403 7.12117 238 ft 0 kts 255°